Vertical_Velocity
-1 -5 -3 -2 5 -3 -1 -3 3 2 2 3 -3 -2 1 -5 -2 -1 -4 2 -3 -2 -2 -1 1 -1 -2 -1 -2 -1 -2 0 -2 -0 -4 -2 -1 -0 0 1 0 -2 3 9 10
-2 12 -1 -8 -9 3 -8 -5 3 3 -1 16 -3 1 2 -3 -7 -3 -0 -0 -0 -1 -1 -1 1 -1 -1 -1 0 -3 -0 -4 -3 -0 -0 -1 6 1 -4 -4 -6 -1 -3 -5 -1
5 4 2 -0 2 -3 -9 -2 -2 -1 2 -1 0 7 0 -1 0 -2 -2 -3 -1 2 4 -2 -1 -1 -1 0 -0 0 -2 -1 -4 -1 7 0 -3 6 2 -5 -1 -0 -8 -1 -4
4 2 1 -1 3 -4 -1 -3 -7 -1 1 14 1 11 -1 1 -3 -1 -4 -3 -1 1 -0 1 2 -2 -1 -0 1 2 -1 0 -3 -2 2 -0 0 -4 6 -12 -3 1 1 -0 -5
-6 -3 5 8 3 -4 -0 -2 -2 -2 1 25 1 2 -2 -1 -3 -3 0 -2 0 2 0 1 -1 -1 -1 -0 -1 2 -1 0 -1 -3 -4 3 -3 -2 -8 -0 2 -6 2 3 -4
-0 5 -6 -6 2 0 -1 0 -2 -4 4 21 -3 6 -0 -1 -2 2 2 0 3 1 0 -3 2 2 -0 0 -1 1 1 -1 -3 -5 1 7 -8 13 -10 -15 -8 7 -11 2 2
-4 5 2 -2 -1 4 -2 -2 -3 -0 -4 25 -7 16 1 -0 2 -1 2 1 1 -0 -1 -0 -1 -2 -1 -1 3 -0 -0 -2 -4 -5 -3 8 -3 -3 -8 3 -7 -4 3 -6 0
3 3 -3 0 -5 -1 -4 -7 -2 -2 3 9 2 9 -1 1 -2 -1 -2 1 3 -1 -1 2 -5 -1 -2 1 -5 -0 -1 -1 -6 0 -8 2 -14 -7 -12 7 -6 -2 1 -2 -14
-3 0 -4 0 -1 -2 -3 -4 5 7 10 14 4 7 -6 7 3 3 0 -5 1 2 -1 -1 -3 -2 -1 -1 -4 -2 -1 1 -5 -0 -1 -0 -5 -4 -2 1 -4 -3 -4 -3 -8
2 9 4 4 1 -6 -9 63 35 23 14 -7 9 -1 3 -2 2 -1 3 1 -1 1 3 1 -1 -1 -0 -1 -5 -3 1 -1 -1 -6 -2 -2 -8 -7 -4 2 -3 -2 -2 -0 -5
0 -7 3 -0 -2 -3 -21 7 6 -11 4 -0 -8 -2 -9 5 13 5 2 2 2 -1 -1 0 -2 -2 -6 -3 -2 -1 1 1 -8 -8 12 -2 -1 -6 -4 0 1 -2 -2 -1 -5
-4 4 2 -1 3 3 -17 -21 8 -3 -4 1 11 2 5 -3 -1 7 3 -5 -1 -1 1 2 -2 -6 0 1 2 1 2 -8 -10 -3 7 -1 -7 -4 -1 -3 1 1 -1 -2 1
1 1 -5 -2 1 5 -1 -15 6 -1 -3 -0 9 -0 -2 -1 -0 -2 -2 0 -2 1 -0 -3 -7 0 1 0 4 -2 2 -3 3 -4 -1 5 -5 -2 -2 1 -2 1 3 2 6
2 -2 -2 -1 1 -3 -3 -2 -17 -0 -4 9 2 -2 -0 4 3 -1 4 0 1 -3 -0 -3 -4 0 1 -0 3 3 -1 2 1 3 -0 0 -7 -2 -1 -0 -1 -1 -1 0 6
1 -0 -7 1 -1 1 4 -6 2 -3 -5 4 2 -4 1 -0 -9 5 1 1 -1 -1 -1 -16 0 0 2 -5 0 -7 3 3 1 1 1 1 4 -6 -1 -2 -0 -0 -1 -1 3
1 -3 -2 -1 -1 3 5 5 -1 -12 1 5 -0 1 -1 1 3 2 -1 -1 3 1 1 -4 -2 2 -3 -1 -0 -2 3 0 1 0 3 -3 -4 -2 0 3 -2 -1 -1 2 3
-5 -8 -3 -5 -1 -5 -2 2 -12 -7 -1 5 1 -0 -1 1 2 -1 0 1 -1 2 -1 -1 -1 -1 2 2 -1 4 0 -1 3 1 -0 0 1 0 -1 -1 2 0 1 2 3
-14 3 7 0 8 1 -2 -11 -12 1 0 0 -1 1 -2 -2 1 1 0 -1 2 1 1 1 -9 -0 1 -0 1 -1 0 1 2 0 -1 -0 -0 2 3 0 1 1 1 3 2
0 -10 -3 -3 -1 2 -5 -6 -2 -0 -1 -2 4 -1 1 1 -4 -2 0 -0 -1 -1 0 1 -4 -2 1 -1 2 -0 1 -3 2 -1 -3 0 0 3 -1 0 0 1 2 -4 -1
-8 1 -1 0 -2 -2 -6 -1 0 1 0 0 -2 -4 -1 0 -1 0 -0 -2 -0 -1 -0 0 -1 -2 -3 3 -2 -1 -0 -2 -1 0 0 -1 0 2 -1 0 0 0 1 1 4
-2 -1 -1 0 1 1 -2 2 -1 1 1 0 0 -1 -1 -2 -0 -1 -3 -3 0 1 0 0 2 -9 -2 0 0 0 -1 1 -1 -2 -1 -0 -1 2 0 -0 0 1 1 -1 -1
-8 -5 -6 -2 -14 -0 -0 -1 -1 -3 -0 -1 1 -1 -2 -1 -0 0 -1 -1 -1 -1 -0 -4 -1 -1 -5 -3 -0 -1 -2 1 -3 -2 -0 -3 -3 -0 -0 -1 -2 -1 -1 0 -0
-5 -2 -3 -1 -4 -1 -2 -1 -1 -1 0 -1 0 -1 -0 -1 -4 -1 0 -2 1 1 -1 -0 -2 -3 -15 -13 -7 -1 -2 0 -0 -3 0 -5 -4 1 1 1 2 1 5 1 1
-0 -6 -4 -5 -0 0 0 0 -2 0 0 1 -0 -1 -1 -1 -0 -0 -0 -1 0 -0 1 -2 -0 -4 -6 -7 -0 -2 -2 -1 -2 -3 -1 0 1 1 0 -0 -0 -0 -1 2 3
-1 -1 -1 -3 -4 -0 1 -0 -0 -3 -0 -2 -5 -0 -0 -1 -1 -0 -1 -1 0 1 0 -3 -1 -1 -1 0 -0 1 1 -1 -2 0 -5 -4 -2 -3 -3 -2 -4 -1 1 -1 -0
-1 -3 1 -1 0 0 -2 -0 1 -1 -1 -1 -4 1 -1 -2 2 1 2 -1 1 -4 -1 -1 -2 -1 -2 -0 -0 -0 -0 -0 -0 -0 -1 -0 -1 -2 1 2 1 -1 -1 -1 1
1 -1 3 1 -1 -3 -0 0 1 -0 1 1 1 -1 -2 -0 2 -1 1 1 0 -0 -0 -1 -2 -2 -3 0 -1 -6 -0 0 0 -0 -1 -1 -5 0 1 0 -1 -1 0 -0 0
Height
1495 1493 1491 1490 1488 1486 1486 1488 1489 1489 1492 1492 1493 1494 1493 1493 1494 1493 1493 1496 1495 1497 1498 1501 1501 1502 1504 1506 1507 1510 1516 1515 1508 1506 1502 1500 1500 1497 1499 1499 1500 1499 1498 1494 1488
1491 1490 1488 1487 1485 1483 1481 1483 1483 1484 1486 1488 1489 1491 1491 1491 1493 1491 1493 1493 1494 1497 1498 1501 1501 1502 1504 1506 1508 1509 1515 1510 1504 1502 1502 1501 1501 1498 1496 1495 1492 1495 1495 1494 1493
1488 1485 1483 1482 1480 1479 1478 1477 1477 1478 1481 1483 1486 1487 1489 1489 1491 1487 1489 1490 1494 1497 1499 1499 1501 1502 1506 1508 1507 1507 1508 1503 1502 1501 1501 1499 1497 1498 1496 1489 1493 1491 1492 1492 1491
1483 1481 1480 1478 1475 1474 1473 1472 1471 1473 1476 1480 1482 1483 1486 1488 1492 1487 1488 1492 1494 1496 1498 1499 1500 1503 1507 1508 1507 1508 1503 1502 1501 1501 1500 1498 1496 1493 1493 1489 1489 1489 1490 1490 1489
1480 1478 1475 1474 1471 1468 1467 1466 1466 1468 1471 1474 1477 1479 1482 1487 1487 1487 1489 1492 1494 1495 1497 1499 1500 1502 1506 1507 1507 1505 1503 1502 1501 1501 1498 1495 1491 1491 1484 1485 1485 1484 1483 1485 1486
1476 1472 1471 1470 1467 1463 1461 1459 1460 1461 1466 1471 1473 1475 1480 1486 1484 1487 1489 1492 1494 1496 1496 1500 1502 1503 1505 1505 1507 1505 1503 1501 1499 1497 1494 1493 1484 1487 1480 1482 1478 1477 1478 1477 1481
1472 1469 1467 1466 1463 1459 1454 1452 1451 1452 1461 1466 1470 1472 1477 1482 1483 1486 1490 1492 1494 1496 1497 1499 1502 1503 1505 1505 1504 1503 1503 1498 1494 1490 1489 1487 1478 1479 1477 1478 1473 1471 1472 1472 1472
1468 1465 1463 1462 1459 1454 1448 1443 1443 1446 1453 1460 1468 1472 1476 1479 1483 1487 1490 1493 1496 1496 1499 1500 1502 1504 1505 1505 1504 1504 1504 1503 1490 1487 1485 1487 1476 1474 1474 1472 1468 1465 1465 1467 1465
1464 1462 1460 1459 1456 1452 1446 1442 1441 1447 1451 1459 1465 1470 1479 1480 1483 1486 1489 1492 1497 1497 1499 1501 1503 1504 1504 1506 1514 1508 1517 1503 1494 1484 1484 1484 1476 1468 1468 1467 1463 1460 1460 1460 1460
1460 1458 1457 1455 1453 1451 1447 1443 1442 1449 1454 1462 1465 1471 1476 1478 1481 1485 1489 1493 1497 1498 1498 1502 1503 1504 1504 1508 1525 1513 1502 1501 1496 1485 1480 1480 1470 1461 1462 1461 1457 1455 1454 1453 1454
1456 1455 1454 1454 1453 1452 1447 1442 1450 1456 1459 1460 1464 1467 1471 1477 1482 1486 1489 1493 1496 1499 1499 1502 1506 1502 1499 1499 1499 1502 1504 1498 1485 1483 1481 1472 1467 1458 1456 1454 1451 1450 1449 1445 1448
1453 1452 1452 1453 1453 1453 1450 1449 1451 1456 1457 1461 1466 1469 1474 1477 1483 1487 1490 1494 1496 1499 1499 1502 1500 1494 1495 1497 1497 1498 1494 1486 1476 1470 1473 1466 1460 1457 1451 1449 1447 1446 1446 1445 1446
1449 1450 1451 1452 1453 1453 1452 1450 1453 1455 1457 1469 1468 1474 1477 1480 1482 1486 1490 1492 1494 1497 1499 1504 1494 1488 1491 1492 1495 1490 1487 1478 1481 1473 1468 1467 1458 1452 1447 1446 1446 1444 1444 1444 1445
1447 1448 1450 1451 1455 1455 1454 1453 1456 1455 1461 1473 1476 1478 1479 1479 1484 1486 1489 1493 1493 1495 1495 1497 1489 1487 1487 1488 1488 1481 1474 1475 1472 1473 1468 1465 1483 1456 1453 1449 1449 1447 1445 1445 1445
1444 1447 1449 1452 1453 1455 1460 1457 1458 1457 1461 1479 1478 1479 1479 1482 1483 1488 1490 1491 1493 1491 1495 1493 1486 1486 1484 1482 1480 1474 1473 1471 1468 1469 1470 1465 1465 1456 1454 1451 1453 1452 1452 1451 1449
1444 1448 1450 1452 1453 1454 1456 1457 1458 1463 1469 1474 1478 1478 1480 1482 1484 1488 1490 1492 1492 1492 1489 1487 1485 1485 1478 1473 1473 1469 1469 1466 1468 1467 1466 1467 1465 1463 1460 1459 1456 1456 1455 1453 1451
1446 1449 1452 1453 1455 1456 1456 1458 1468 1475 1479 1480 1477 1479 1479 1482 1486 1488 1490 1492 1492 1489 1488 1481 1478 1477 1474 1473 1468 1468 1470 1464 1461 1471 1457 1455 1459 1463 1463 1461 1460 1458 1458 1455 1453
1450 1454 1454 1455 1456 1458 1460 1462 1480 1472 1473 1473 1475 1479 1482 1482 1485 1487 1488 1492 1489 1488 1484 1481 1480 1474 1471 1470 1467 1465 1468 1460 1450 1453 1463 1456 1460 1461 1465 1463 1461 1461 1460 1458 1456
1457 1459 1458 1459 1460 1460 1462 1472 1481 1476 1471 1474 1480 1482 1483 1481 1483 1486 1488 1482 1480 1481 1483 1479 1477 1470 1468 1466 1467 1462 1461 1461 1454 1452 1462 1459 1463 1467 1466 1463 1462 1462 1461 1460 1461
1464 1463 1463 1464 1464 1464 1468 1473 1475 1471 1471 1473 1474 1476 1481 1482 1484 1489 1484 1479 1479 1479 1480 1478 1477 1468 1463 1464 1458 1461 1458 1460 1458 1453 1451 1457 1456 1459 1465 1466 1466 1465 1465 1467 1464
1469 1468 1468 1466 1465 1464 1473 1477 1477 1472 1471 1473 1470 1475 1478 1481 1482 1481 1482 1479 1477 1478 1479 1479 1476 1469 1462 1462 1456 1459 1456 1452 1450 1452 1453 1458 1467 1465 1467 1469 1469 1469 1468 1468 1468
1471 1473 1472 1468 1468 1475 1477 1479 1477 1475 1472 1472 1471 1471 1477 1480 1481 1478 1477 1479 1475 1475 1476 1474 1475 1480 1461 1455 1454 1454 1454 1452 1455 1454 1467 1469 1473 1467 1468 1468 1468 1469 1470 1470 1469
1477 1478 1476 1473 1482 1483 1479 1477 1475 1472 1472 1470 1470 1470 1471 1474 1478 1476 1475 1472 1472 1473 1473 1472 1477 1482 1468 1462 1457 1458 1453 1450 1448 1457 1467 1473 1473 1470 1471 1471 1471 1471 1473 1474 1473
1479 1483 1481 1480 1482 1484 1482 1477 1475 1472 1471 1471 1471 1469 1469 1472 1472 1474 1473 1471 1471 1471 1471 1471 1477 1481 1492 1476 1471 1466 1460 1452 1451 1470 1466 1471 1475 1475 1473 1473 1473 1473 1473 1474 1475
1483 1488 1488 1489 1483 1484 1484 1479 1479 1480 1474 1473 1473 1474 1470 1475 1474 1476 1474 1472 1471 1470 1470 1471 1478 1481 1471 1468 1468 1470 1468 1462 1461 1457 1461 1468 1469 1468 1470 1471 1472 1473 1474 1476 1476
1486 1487 1487 1485 1484 1483 1483 1484 1483 1482 1480 1480 1481 1480 1477 1483 1485 1482 1478 1475 1475 1472 1471 1473 1483 1480 1482 1470 1471 1470 1470 1465 1464 1463 1467 1465 1463 1463 1467 1471 1473 1474 1475 1476 1476
1488 1489 1489 1487 1485 1486 1487 1485 1484 1482 1484 1483 1483 1482 1482 1483 1480 1478 1477 1476 1475 1474 1474 1475 1483 1493 1489 1477 1472 1478 1470 1469 1467 1466 1464 1466 1463 1463 1467 1469 1469 1471 1473 1474 1475